Location: Newark
(42.4678°N, 122.8017°W)
Time: 08:27:04
(UTC+00:00)

X-37B - Visible Passes

Search period start: 18 September 2020 00:00
Search period end: 28 September 2020 00:00
Orbit: 386 x 387 km, 45.0° (Epoch: 15 September)

Date Brightness Start Highest point End Pass type
(mag) Time Alt. Az. Time Alt. Az. Time Alt. Az.
18 Sep 4.1 11:06:26 11° ENE 11:06:26 11° ENE 11:06:38 10° ENE visible
18 Sep 1.2 12:38:42 25° WNW 12:40:15 51° N 12:43:22 10° E visible
19 Sep 2.5 11:42:49 30° ENE 11:42:49 30° ENE 11:44:43 10° ENE visible
19 Sep 0.7 13:15:14 10° WNW 13:18:25 74° NNE 13:21:37 10° E visible
20 Sep 1.0 12:19:16 48° NW 12:19:48 57° N 12:22:57 10° E visible
21 Sep 3.7 11:23:30 16° ENE 11:23:30 16° ENE 11:24:16 10° E visible
21 Sep 0.5 12:55:47 19° WNW 12:57:54 77° SSW 13:01:04 10° ESE visible
22 Sep 1.6 12:00:07 46° E 12:00:07 46° E 12:02:30 10° E visible
23 Sep 0.9 12:36:52 43° SW 12:37:19 47° SSW 12:40:23 10° SE visible
24 Sep 3.5 11:41:27 14° ESE 11:41:27 14° ESE 11:41:58 10° ESE visible
24 Sep 2.5 13:13:45 13° WSW 13:15:03 16° SW 13:17:06 10° S visible
25 Sep 2.8 12:18:29 16° SSE 12:18:29 16° SSE 12:19:26 10° SSE visible
